Hillsdale, MI

11:05 AM EDT on April 19, 2018 (GMT -0400)
Hillsdale Municipal

Weather History for KJYM - July, 2013

Change the Weather History Date:

Monday, July 29, 2013

  Actual Average Record
Temperature  
Mean Temperature 62 °F -  
Max Temperature 71 °F 81 °F 94 °F (1988)
Min Temperature 52 °F 56 °F 42 °F (1984)
Degree Days  
Heating Degree Days 3    
Growing Degree Days 12 (Base 50)    
Moisture  
Dew Point 55 °F    
Average Humidity 82    
Maximum Humidity 99    
Minimum Humidity 59    
Precipitation  
Precipitation 0.00 in - - ()
Sea Level Pressure  
Sea Level Pressure 30.10 in    
Wind  
Wind Speed 5 mph (West)    
Max Wind Speed 13 mph    
Max Gust Speed 18 mph    
Visibility 10 miles    
Events Rain    
Averages and records for this station are not official NWS values.
T = Trace of Precipitation, MM = Missing Value Source: NWS Daily Summary

Daily Weather History Graph

Daily Weather History Graph

Search for Another Location

Airport or City:

Astronomy

Jul. 29, 2013 Rise Set
Actual Time 6:29 AM EDT 8:59 PM EDT
Civil Twilight 5:57 AM EDT 9:31 PM EDT
Nautical Twilight 5:17 AM EDT 10:10 PM EDT
Astronomical Twilight 4:33 AM EDT 10:55 PM EDT
Moon 12:13 AM EDT (7/29) 2:18 PM EDT (7/29)
Length of Visible Light 15h 33m
Length of Day
14h 30m
Waning Gibbous, 51% of the Moon is Illuminated
Jul 29
Waning Gibbous
Jul 29
Last Quarter
Aug 6
New
Aug 14
First Quarter
Aug 20
Full

Hourly Weather History & Observations

Time (EDT) Temp. Dew Point Humidity Pressure Visibility Wind Dir Wind Speed Gust Speed Precip Events Conditions
12:14 AM 56.5 °F 53.4 °F 89% 30.01 in 10.0 mi SW 3.5 mph - N/A   Clear
12:35 AM 56.5 °F 53.4 °F 89% 30.01 in 10.0 mi SSW 3.5 mph - N/A   Clear
12:54 AM 56.7 °F 53.6 °F 89% 30.01 in 10.0 mi SW 3.5 mph - N/A   Mostly Cloudy
1:15 AM 57.0 °F 53.4 °F 88% 30.01 in 10.0 mi SW 3.5 mph - N/A   Mostly Cloudy
1:35 AM 57.6 °F 53.6 °F 87% 30.01 in 10.0 mi SW 5.8 mph - N/A   Mostly Cloudy
1:54 AM 56.7 °F 52.9 °F 87% 30.01 in 10.0 mi SW 5.8 mph - N/A   Scattered Clouds
2:15 AM 55.9 °F 53.1 °F 90% 30.01 in 10.0 mi SSW 3.5 mph - N/A   Scattered Clouds
2:35 AM 55.6 °F 53.1 °F 91% 30.01 in 10.0 mi SSW 5.8 mph - N/A   Scattered Clouds
2:54 AM 55.8 °F 53.1 °F 91% 30.01 in 10.0 mi SSW 4.6 mph - N/A   Mostly Cloudy
3:15 AM 55.6 °F 52.5 °F 89% 30.01 in 10.0 mi SSW 4.6 mph - N/A   Mostly Cloudy
3:35 AM 55.2 °F 52.5 °F 91% 30.01 in 10.0 mi SSW 5.8 mph - N/A   Mostly Cloudy
3:54 AM 55.2 °F 52.3 °F 90% 30.01 in 10.0 mi SSW 6.9 mph - N/A   Mostly Cloudy
4:15 AM 54.9 °F 51.8 °F 89% 30.01 in 10.0 mi SW 4.6 mph - N/A   Scattered Clouds
4:34 AM 54.7 °F 51.6 °F 89% 30.01 in 10.0 mi SW 3.5 mph - N/A   Clear
4:54 AM 55.6 °F 52.0 °F 88% 30.02 in 10.0 mi SW 4.6 mph - N/A   Mostly Cloudy
5:14 AM 55.8 °F 51.8 °F 87% 30.02 in 10.0 mi SW 4.6 mph - N/A   Overcast
5:34 AM 55.8 °F 51.6 °F 86% 30.02 in 10.0 mi West 3.5 mph - N/A   Overcast
5:55 AM 55.8 °F 52.3 °F 88% 30.03 in 10.0 mi Calm Calm - N/A   Overcast
6:14 AM 54.9 °F 52.2 °F 91% 30.03 in 10.0 mi WSW 3.5 mph - N/A   Mostly Cloudy
6:34 AM 54.7 °F 52.3 °F 92% 30.03 in 10.0 mi Calm Calm - N/A   Clear
6:54 AM 55.4 °F 53.2 °F 92% 30.04 in 10.0 mi WSW 4.6 mph - N/A   Mostly Cloudy
7:14 AM 56.5 °F 53.6 °F 90% 30.04 in 10.0 mi WSW 3.5 mph - N/A   Overcast
7:35 AM 57.0 °F 53.6 °F 88% 30.05 in 10.0 mi WSW 5.8 mph - N/A   Overcast
7:54 AM 57.9 °F 54.1 °F 87% 30.06 in 10.0 mi West 3.5 mph - N/A   Overcast
8:14 AM 58.8 °F 55.0 °F 87% 30.06 in 10.0 mi West 3.5 mph - N/A   Overcast
8:35 AM 57.9 °F 55.9 °F 93% 30.07 in 2.5 mi West 5.8 mph - N/A Rain Light Rain
8:54 AM 58.3 °F 57.0 °F 96% 30.07 in 2.0 mi West 4.6 mph - N/A Rain Rain
9:15 AM 57.9 °F 57.0 °F 97% 30.08 in 10.0 mi West 4.6 mph - N/A   Overcast
9:35 AM 58.6 °F 57.6 °F 96% 30.09 in 10.0 mi West 5.8 mph - N/A   Overcast
9:54 AM 59.4 °F 57.7 °F 94% 30.09 in 10.0 mi West 6.9 mph - N/A   Overcast
10:15 AM 59.7 °F 57.9 °F 94% 30.10 in 7.0 mi West 5.8 mph - N/A   Overcast
10:34 AM 60.8 °F 58.6 °F 93% 30.10 in 10.0 mi West 5.8 mph - N/A   Overcast
10:55 AM 62.8 °F 58.3 °F 85% 30.10 in 10.0 mi West 4.6 mph - N/A   Overcast
11:15 AM 63.7 °F 57.9 °F 81% 30.11 in 10.0 mi West 6.9 mph - N/A   Overcast
11:34 AM 63.7 °F 57.7 °F 81% 30.11 in 10.0 mi West 8.1 mph - N/A   Overcast
11:55 AM 63.0 °F 57.4 °F 82% 30.12 in 10.0 mi WNW 8.1 mph - N/A   Overcast
12:15 PM 64.8 °F 57.9 °F 78% 30.12 in 10.0 mi WNW 9.2 mph - N/A   Overcast
12:34 PM 64.6 °F 56.7 °F 75% 30.12 in 10.0 mi WNW 5.8 mph - N/A   Overcast
12:55 PM 64.2 °F 56.1 °F 75% 30.12 in 10.0 mi WNW 6.9 mph - N/A   Overcast
1:14 PM 64.6 °F 56.5 °F 75% 30.13 in 10.0 mi West 5.8 mph - N/A   Overcast
1:34 PM 66.4 °F 56.8 °F 71% 30.12 in 10.0 mi WNW 6.9 mph - N/A   Overcast
1:55 PM 68.0 °F 56.1 °F 66% 30.12 in 10.0 mi West 8.1 mph 17.3 mph N/A   Overcast
2:14 PM 67.8 °F 55.0 °F 64% 30.13 in 10.0 mi West 11.5 mph 16.1 mph N/A   Overcast
2:34 PM 69.6 °F 56.3 °F 63% 30.13 in 10.0 mi West 6.9 mph - N/A   Mostly Cloudy
2:54 PM 68.5 °F 56.3 °F 65% 30.13 in 10.0 mi NW 9.2 mph - N/A   Overcast
3:14 PM 69.1 °F 55.6 °F 62% 30.13 in 10.0 mi West 6.9 mph 16.1 mph N/A   Overcast
3:34 PM 70.7 °F 55.9 °F 59% 30.14 in 10.0 mi NW 12.7 mph 17.3 mph N/A   Overcast
3:54 PM 69.6 °F 56.3 °F 63% 30.13 in 10.0 mi West 5.8 mph - N/A   Mostly Cloudy
4:14 PM 69.3 °F 56.7 °F 64% 30.14 in 10.0 mi NW 10.4 mph 18.4 mph N/A   Mostly Cloudy
4:34 PM 69.8 °F 56.3 °F 62% 30.15 in 10.0 mi NW 10.4 mph - N/A   Scattered Clouds
4:54 PM 71.1 °F 56.3 °F 60% 30.14 in 10.0 mi NW 6.9 mph - N/A   Scattered Clouds
5:14 PM 70.2 °F 56.1 °F 61% 30.15 in 10.0 mi WNW 11.5 mph - N/A   Mostly Cloudy
5:35 PM 70.0 °F 56.3 °F 62% 30.15 in 10.0 mi NW 6.9 mph - N/A   Scattered Clouds
5:54 PM 69.6 °F 55.2 °F 60% 30.15 in 10.0 mi WNW 6.9 mph - N/A   Scattered Clouds
6:14 PM 69.3 °F 55.4 °F 61% 30.15 in 10.0 mi NW 9.2 mph - N/A   Scattered Clouds
6:35 PM 68.9 °F 55.6 °F 62% 30.16 in 10.0 mi NW 6.9 mph - N/A   Mostly Cloudy
6:54 PM 68.7 °F 55.2 °F 62% 30.16 in 10.0 mi NNW 8.1 mph - N/A   Mostly Cloudy
7:15 PM 68.4 °F 54.9 °F 62% 30.16 in 10.0 mi North 4.6 mph - N/A   Scattered Clouds
7:35 PM 67.1 °F 54.9 °F 65% 30.17 in 10.0 mi NNW 4.6 mph - N/A   Clear
7:54 PM 65.7 °F 55.9 °F 71% 30.18 in 10.0 mi NNW 4.6 mph - N/A   Clear
8:15 PM 64.9 °F 56.3 °F 74% 30.18 in 10.0 mi Calm Calm - N/A   Clear
8:34 PM 63.3 °F 56.8 °F 79% 30.19 in 10.0 mi Calm Calm - N/A   Clear
8:55 PM 61.5 °F 57.9 °F 88% 30.19 in 10.0 mi Calm Calm - N/A   Clear
9:14 PM 59.4 °F 57.6 °F 94% 30.19 in 10.0 mi Calm Calm - N/A   Clear
9:34 PM 57.4 °F 56.5 °F 97% 30.19 in 10.0 mi Calm Calm - N/A   Clear
9:55 PM 56.5 °F 55.6 °F 97% 30.20 in 10.0 mi Calm Calm - N/A   Clear
10:14 PM 55.4 °F 54.5 °F 97% 30.21 in 10.0 mi Calm Calm - N/A   Clear
10:35 PM 54.9 °F 54.3 °F 98% 30.21 in 10.0 mi Calm Calm - N/A   Clear
10:55 PM 53.8 °F 53.2 °F 98% 30.20 in 10.0 mi Calm Calm - N/A   Clear
11:14 PM 53.6 °F 53.1 °F 98% 30.20 in 10.0 mi Calm Calm - N/A   Clear
11:35 PM 53.2 °F 52.9 °F 99% 30.20 in 10.0 mi Calm Calm - N/A   Clear
11:55 PM 52.2 °F 51.6 °F 98% 30.20 in 10.0 mi Calm Calm - N/A   Clear